Find ATS 5

NORAD ID: 4068 Int'l Des: 1969-069 Owner: GSFC Country: US operational
HEOCIRCULAR

Live Position

Loading 3D Globe...

About ATS 5

Description loading...

Upcoming Passes

Passes for default location (London). Set your location on the main map for personalized predictions.

Altitude History

Loading altitude history...

Two-Line Element Set

1 4068U 69069A 26104.79249764 -.00000258 00000-0 00000+0 0 9994
2 4068 0.2386 192.0136 0005755 91.0363 164.6420 0.99494459 45695
Epoch: Apr 14, 2026 • Age: 14 hours

Current Status

Altitude 35981.4 km
Velocity 3.07 km/s
Sub-Earth Point 0.26°N, 42.15°W
Type other

Most Searched